Location: Davayat
(45.9471°N, 3.1105°E)
Time: 18:25:49
(UTC+00:00)

CSL-04 DEB - Pass Details

Date: 01 December 2020
Orbit: 546 x 627 km, 98.8° (Epoch: 22 January)

Event Time Altitude Azimuth Distance (km) Brightness Sun altitude
Exits shadow 17:10:46 - 16° (NNE) 2,631 7.4 -11.3°
Reaches altitude 10° 17:12:28 10° 18° (NNE) 1,923 6.7 -11.5°
Maximum altitude 17:16:39 73° 103° (ESE) 629 4.4 -12.2°
Drops below altitude 10° 17:20:53 10° 189° (S) 1,955 7.5 -12.9°
Sets 17:23:05 0° 191° (SSW) 2,866 8.4 -13.3°
